• In Hungary
  • List of Countries
  • For 7 days
  • Water Temperature
  • Satellite Maps
  • Weather Map
  • News
  • Weather Widgets
  • user-avatar
    Login

    Hourly Weather Escaldes-Engordany

    Today, 20 January, Saturday

    Time Temperature Precipitation Wind Pressure Humidity
    00:00 -4°C° 0 mm 3 mps 639 mmHg 77%
    01:00 -4°C° 0 mm 3 mps 639 mmHg 77%
    02:00 -3°C° 0 mm 2 mps 639 mmHg 77%
    03:00 -3°C° 0 mm 2 mps 639 mmHg 77%
    04:00 -3°C° 0 mm 2 mps 638 mmHg 76%
    05:00 -3°C° 0 mm 2 mps 638 mmHg 76%
    06:00 -3°C° 0 mm 2 mps 638 mmHg 75%
    07:00 -2°C° 0 mm 2 mps 638 mmHg 72%
    08:00 +2°C° 0 mm 1 mps 639 mmHg 69%
    09:00 +3°C° 0 mm 1 mps 639 mmHg 66%
    10:00 +3°C° 0 mm 2 mps 639 mmHg 65%
    11:00 +4°C° 0 mm 2 mps 639 mmHg 65%
    12:00 +4°C° 0 mm 3 mps 639 mmHg 65%
    13:00 +4°C° 0.5 mm 3 mps 638 mmHg 69%
    14:00 +5°C° 0.5 mm 3 mps 638 mmHg 73%
    15:00 +5°C° 0.5 mm 3 mps 638 mmHg 77%
    16:00 +4°C° 1 mm 3 mps 637 mmHg 81%
    17:00 +3°C° 1 mm 3 mps 637 mmHg 85%
    18:00 +3°C° 1 mm 3 mps 637 mmHg 88%
    19:00 +3°C° 0.5 mm 3 mps 637 mmHg 89%
    20:00 +3°C° 0.5 mm 3 mps 637 mmHg 89%
    21:00 +3°C° 0.5 mm 3 mps 638 mmHg 89%
    22:00 +3°C° 0.4 mm 3 mps 638 mmHg 90%
    23:00 +3°C° 0.4 mm 3 mps 638 mmHg 90%

    Tomorrow, 21 January, Sunday

    Time Temperature Precipitation Wind Pressure Humidity
    00:00 +3°C° 0.4 mm 3 mps 638 mmHg 90%
    01:00 +3°C° 0.5 mm 3 mps 639 mmHg 91%
    02:00 +3°C° 0.5 mm 3 mps 639 mmHg 91%
    03:00 +4°C° 0.5 mm 3 mps 639 mmHg 91%
    04:00 +4°C° 0.4 mm 3 mps 639 mmHg 91%
    05:00 +4°C° 0.4 mm 3 mps 639 mmHg 91%
    06:00 +4°C° 0.4 mm 3 mps 639 mmHg 90%
    07:00 +4°C° 0.3 mm 3 mps 640 mmHg 90%
    08:00 +4°C° 0.3 mm 3 mps 640 mmHg 89%
    09:00 +4°C° 0.3 mm 3 mps 641 mmHg 88%
    10:00 +5°C° 0.2 mm 3 mps 641 mmHg 85%
    11:00 +7°C° 0.2 mm 3 mps 642 mmHg 83%
    12:00 +8°C° 0.2 mm 3 mps 642 mmHg 80%
    13:00 +7°C° 0.4 mm 3 mps 642 mmHg 80%
    14:00 +7°C° 0.4 mm 3 mps 642 mmHg 80%
    15:00 +7°C° 0.4 mm 3 mps 642 mmHg 80%
    16:00 +7°C° 0.2 mm 3 mps 642 mmHg 83%
    17:00 +5°C° 0.2 mm 3 mps 642 mmHg 85%
    18:00 +4°C° 0.2 mm 3 mps 642 mmHg 87%
    19:00 +4°C° 0.2 mm 3 mps 642 mmHg 87%
    20:00 +4°C° 0.2 mm 3 mps 643 mmHg 86%
    21:00 +3°C° 0.2 mm 3 mps 643 mmHg 86%
    22:00 +3°C° 0 mm 3 mps 643 mmHg 85%
    23:00 +3°C° 0 mm 3 mps 643 mmHg 84%

    Day after tomorrow, 22 January, Monday

    Time Temperature Precipitation Wind Pressure Humidity
    00:00 +3°C° 0 mm 3 mps 643 mmHg 83%
    01:00 +2°C° 0 mm 3 mps 643 mmHg 83%
    02:00 +2°C° 0 mm 3 mps 642 mmHg 83%
    03:00 +2°C° 0 mm 3 mps 642 mmHg 82%
    04:00 +2°C° 0 mm 3 mps 642 mmHg 81%
    05:00 +2°C° 0 mm 3 mps 642 mmHg 80%
    06:00 +1°C° 0 mm 3 mps 642 mmHg 79%
    07:00 +2°C° 0 mm 3 mps 642 mmHg 77%
    08:00 +3°C° 0 mm 3 mps 643 mmHg 74%
    09:00 +5°C° 0 mm 2 mps 643 mmHg 71%
    10:00 +5°C° 0 mm 3 mps 644 mmHg 68%
    11:00 +8°C° 0 mm 3 mps 644 mmHg 64%
    12:00 +9°C° 0 mm 3 mps 645 mmHg 61%
    13:00 +9°C° 0 mm 3 mps 644 mmHg 63%
    14:00 +9°C° 0 mm 3 mps 644 mmHg 64%
    15:00 +9°C° 0 mm 3 mps 644 mmHg 66%
    16:00 +7°C° 0 mm 2 mps 643 mmHg 72%
    17:00 +5°C° 0 mm 2 mps 643 mmHg 77%
    18:00 +3°C° 0 mm 2 mps 643 mmHg 83%
    19:00 +3°C° 0 mm 2 mps 643 mmHg 79%
    20:00 +3°C° 0 mm 2 mps 643 mmHg 76%
    21:00 +2°C° 0 mm 3 mps 643 mmHg 72%
    22:00 +2°C° 0 mm 3 mps 643 mmHg 72%
    23:00 +3°C° 0 mm 2 mps 643 mmHg 72%

    23 January, Tuesday

    Time Temperature Precipitation Wind Pressure Humidity
    00:00 +3°C° 0 mm 2 mps 643 mmHg 71%
    01:00 +3°C° 0 mm 2 mps 643 mmHg 75%
    02:00 +3°C° 0 mm 3 mps 643 mmHg 79%
    03:00 +3°C° 0 mm 3 mps 643 mmHg 83%
    04:00 +3°C° 0 mm 3 mps 643 mmHg 84%
    05:00 +2°C° 0 mm 3 mps 643 mmHg 85%
    06:00 +2°C° 0 mm 3 mps 643 mmHg 86%
    07:00 +3°C° 0 mm 3 mps 644 mmHg 83%
    08:00 +4°C° 0 mm 2 mps 644 mmHg 81%
    09:00 +5°C° 0 mm 2 mps 645 mmHg 79%
    10:00 +6°C° 0 mm 2 mps 645 mmHg 73%
    11:00 +8°C° 0 mm 3 mps 645 mmHg 68%
    12:00 +9°C° 0 mm 3 mps 646 mmHg 62%
    13:00 +9°C° 0 mm 2 mps 646 mmHg 63%
    14:00 +9°C° 0 mm 2 mps 645 mmHg 64%
    15:00 +8°C° 0 mm 2 mps 645 mmHg 65%
    16:00 +7°C° 0 mm 2 mps 645 mmHg 72%
    17:00 +5°C° 0 mm 2 mps 644 mmHg 79%
    18:00 +3°C° 0 mm 2 mps 644 mmHg 86%
    19:00 +3°C° 0 mm 2 mps 644 mmHg 84%
    20:00 +3°C° 0 mm 2 mps 645 mmHg 82%
    21:00 +2°C° 0 mm 2 mps 645 mmHg 79%
    22:00 +2°C° 0 mm 2 mps 645 mmHg 76%
    23:00 +3°C° 0 mm 1 mps 645 mmHg 72%

    24 January, Wednesday

    Time Temperature Precipitation Wind Pressure Humidity
    00:00 +3°C° 0 mm 1 mps 644 mmHg 68%
    01:00 +3°C° 0 mm 1 mps 644 mmHg 65%
    02:00 +3°C° 0 mm 1 mps 644 mmHg 62%
    03:00 +3°C° 0 mm 1 mps 644 mmHg 60%
    04:00 +3°C° 0 mm 1 mps 644 mmHg 60%
    05:00 +3°C° 0 mm 1 mps 644 mmHg 60%
    06:00 +3°C° 0 mm 1 mps 644 mmHg 60%
    07:00 +4°C° 0 mm 1 mps 644 mmHg 60%
    08:00 +5°C° 0 mm 1 mps 645 mmHg 59%
    09:00 +6°C° 0 mm 1 mps 646 mmHg 59%
    10:00 +8°C° 0 mm 1 mps 646 mmHg 58%
    11:00 +8°C° 0 mm 2 mps 646 mmHg 57%
    12:00 +10°C° 0 mm 2 mps 646 mmHg 55%
    13:00 +9°C° 0 mm 2 mps 646 mmHg 58%
    14:00 +9°C° 0 mm 2 mps 645 mmHg 60%
    15:00 +9°C° 0 mm 2 mps 645 mmHg 63%
    16:00 +7°C° 0 mm 2 mps 644 mmHg 70%
    17:00 +6°C° 0 mm 1 mps 644 mmHg 77%
    18:00 +4°C° 0 mm 1 mps 643 mmHg 85%
    19:00 +4°C° 0 mm 1 mps 643 mmHg 84%
    20:00 +4°C° 0 mm 1 mps 643 mmHg 83%
    21:00 +3°C° 0 mm 1 mps 643 mmHg 81%
    22:00 +3°C° 0 mm 1 mps 643 mmHg 80%
    23:00 +3°C° 0 mm 1 mps 643 mmHg 78%

    25 January, Thursday

    Time Temperature Precipitation Wind Pressure Humidity
    00:00 +3°C° 0 mm 1 mps 643 mmHg 77%
    01:00 +3°C° 0 mm 1 mps 642 mmHg 77%
    02:00 +3°C° 0 mm 1 mps 642 mmHg 77%
    03:00 +3°C° 0 mm 1 mps 641 mmHg 77%
    04:00 +2°C° 0 mm 1 mps 641 mmHg 77%
    05:00 +2°C° 0 mm 1 mps 641 mmHg 77%
    06:00 +2°C° 0 mm 1 mps 641 mmHg 77%
    07:00 +2°C° 0 mm 2 mps 641 mmHg 75%
    08:00 +3°C° 0 mm 2 mps 641 mmHg 72%
    09:00 +4°C° 0 mm 2 mps 642 mmHg 69%
    10:00 +6°C° 0 mm 2 mps 642 mmHg 64%
    11:00 +7°C° 0 mm 2 mps 642 mmHg 59%
    12:00 +8°C° 0 mm 3 mps 642 mmHg 54%
    13:00 +8°C° 0 mm 2 mps 641 mmHg 55%
    14:00 +8°C° 0 mm 2 mps 641 mmHg 56%
    15:00 +8°C° 0 mm 2 mps 640 mmHg 57%
    16:00 +6°C° 0 mm 2 mps 640 mmHg 65%
    17:00 +5°C° 0 mm 1 mps 639 mmHg 73%
    18:00 +3°C° 0 mm 1 mps 638 mmHg 81%
    19:00 +3°C° 0 mm 1 mps 638 mmHg 81%
    20:00 +3°C° 0 mm 1 mps 638 mmHg 81%
    21:00 +2°C° 0 mm 1 mps 638 mmHg 81%
    22:00 +2°C° 0.2 mm 1 mps 638 mmHg 81%
    23:00 +2°C° 0.2 mm 1 mps 638 mmHg 81%
    Show more